Year,Month,Day,Hour,Minute,Value (Times are PST for temperature in C)
2008,09,02,00,00,8.60
2008,09,02,00,01,8.60
2008,09,02,00,02,8.60
2008,09,02,00,03,8.60
2008,09,02,00,04,8.60
2008,09,02,00,05,8.60
2008,09,02,00,06,8.60
2008,09,02,00,07,8.60
2008,09,02,00,08,8.60
2008,09,02,00,09,8.60
2008,09,02,00,10,8.50
2008,09,02,00,11,8.50
2008,09,02,00,12,8.50
2008,09,02,00,13,8.50
2008,09,02,00,14,8.50
2008,09,02,00,15,8.50
2008,09,02,00,16,8.50
2008,09,02,00,17,8.40
2008,09,02,00,18,8.40
2008,09,02,00,19,8.40
2008,09,02,00,20,8.40
2008,09,02,00,21,8.40
2008,09,02,00,22,8.40
2008,09,02,00,23,8.40
2008,09,02,00,24,8.40
2008,09,02,00,25,8.40
2008,09,02,00,26,8.40
2008,09,02,00,27,8.40
2008,09,02,00,28,8.40
2008,09,02,00,29,8.40
2008,09,02,00,30,8.40
2008,09,02,00,31,8.30
2008,09,02,00,32,8.30
2008,09,02,00,33,8.30
2008,09,02,00,34,8.30
2008,09,02,00,35,8.30
2008,09,02,00,36,8.30
2008,09,02,00,37,8.30
2008,09,02,00,38,8.20
2008,09,02,00,39,8.20
2008,09,02,00,40,8.20
2008,09,02,00,41,8.20
2008,09,02,00,42,8.20
2008,09,02,00,43,8.10
2008,09,02,00,44,8.10
2008,09,02,00,45,8.10
2008,09,02,00,46,8.10
2008,09,02,00,47,8.00
2008,09,02,00,48,8.00
2008,09,02,00,49,8.00
2008,09,02,00,50,8.00
2008,09,02,00,51,8.00
2008,09,02,00,52,7.90
2008,09,02,00,53,7.90
2008,09,02,00,54,7.90
2008,09,02,00,55,7.90
2008,09,02,00,56,7.90
2008,09,02,00,57,7.90
2008,09,02,00,58,7.80
2008,09,02,00,59,7.80
2008,09,02,01,00,7.80
2008,09,02,01,01,7.80
2008,09,02,01,02,7.80
2008,09,02,01,03,7.80
2008,09,02,01,04,7.80
2008,09,02,01,05,7.80
2008,09,02,01,06,7.80
2008,09,02,01,07,7.80
2008,09,02,01,08,7.70
2008,09,02,01,09,7.70
2008,09,02,01,10,7.70
2008,09,02,01,11,7.70
2008,09,02,01,12,7.70
2008,09,02,01,13,7.70
2008,09,02,01,14,7.70
2008,09,02,01,15,7.70
2008,09,02,01,16,7.70
2008,09,02,01,17,7.70
2008,09,02,01,18,7.70
2008,09,02,01,19,7.70
2008,09,02,01,20,7.70
2008,09,02,01,21,7.70
2008,09,02,01,22,7.70
2008,09,02,01,23,7.70
2008,09,02,01,24,7.70
2008,09,02,01,25,7.70
2008,09,02,01,26,7.60
2008,09,02,01,27,7.60
2008,09,02,01,28,7.60
2008,09,02,01,29,7.60
2008,09,02,01,30,7.60
2008,09,02,01,31,7.60
2008,09,02,01,32,7.60
2008,09,02,01,33,7.60
2008,09,02,01,34,7.50
2008,09,02,01,35,7.50
2008,09,02,01,36,7.50
2008,09,02,01,37,7.50
2008,09,02,01,38,7.40
2008,09,02,01,39,7.40
2008,09,02,01,40,7.40
2008,09,02,01,41,7.30
2008,09,02,01,42,7.30
2008,09,02,01,43,7.20
2008,09,02,01,44,7.20
2008,09,02,01,45,7.20
2008,09,02,01,46,7.20
2008,09,02,01,47,7.20
2008,09,02,01,48,7.20
2008,09,02,01,49,7.20
2008,09,02,01,50,7.20
2008,09,02,01,51,7.20
2008,09,02,01,52,7.10
2008,09,02,01,53,7.10
2008,09,02,01,54,7.10
2008,09,02,01,55,7.10
2008,09,02,01,56,7.10
2008,09,02,01,57,7.10
2008,09,02,01,58,7.10
2008,09,02,01,59,7.10
2008,09,02,02,00,7.10
2008,09,02,02,01,7.00
2008,09,02,02,02,7.00
2008,09,02,02,03,6.90
2008,09,02,02,04,6.90
2008,09,02,02,05,6.90
2008,09,02,02,06,6.90
2008,09,02,02,07,6.90
2008,09,02,02,08,6.90
2008,09,02,02,09,6.90
2008,09,02,02,10,6.80
2008,09,02,02,11,6.80
2008,09,02,02,12,6.80
2008,09,02,02,13,6.80
2008,09,02,02,14,6.80
2008,09,02,02,15,6.80
2008,09,02,02,16,6.80
2008,09,02,02,17,6.80
2008,09,02,02,18,6.80
2008,09,02,02,19,6.80
2008,09,02,02,20,6.80
2008,09,02,02,21,6.80
2008,09,02,02,22,6.80
2008,09,02,02,23,6.80
2008,09,02,02,24,6.80
2008,09,02,02,25,6.80
2008,09,02,02,26,6.90
2008,09,02,02,27,6.90
2008,09,02,02,28,6.90
2008,09,02,02,29,6.90
2008,09,02,02,30,6.90
2008,09,02,02,31,6.80
2008,09,02,02,32,6.80
2008,09,02,02,33,6.80
2008,09,02,02,34,6.80
2008,09,02,02,35,6.80
2008,09,02,02,36,6.80
2008,09,02,02,37,6.80
2008,09,02,02,38,6.80
2008,09,02,02,39,6.80
2008,09,02,02,40,6.80
2008,09,02,02,41,6.90
2008,09,02,02,42,6.90
2008,09,02,02,43,6.90
2008,09,02,02,44,7.00
2008,09,02,02,45,7.10
2008,09,02,02,46,7.20
2008,09,02,02,47,7.30
2008,09,02,02,48,7.40
2008,09,02,02,49,7.40
2008,09,02,02,50,7.40
2008,09,02,02,51,7.40
2008,09,02,02,52,7.40
2008,09,02,02,53,7.40
2008,09,02,02,54,7.50
2008,09,02,02,55,7.40
2008,09,02,02,56,7.40
2008,09,02,02,57,7.40
2008,09,02,02,58,7.40
2008,09,02,02,59,7.40
2008,09,02,03,00,7.40
2008,09,02,03,01,7.40
2008,09,02,03,02,7.40
2008,09,02,03,03,7.40
2008,09,02,03,04,7.40
2008,09,02,03,05,7.40
2008,09,02,03,06,7.40
2008,09,02,03,07,7.40
2008,09,02,03,08,7.40
2008,09,02,03,09,7.40
2008,09,02,03,10,7.40
2008,09,02,03,11,7.40
2008,09,02,03,12,7.40
2008,09,02,03,13,7.40
2008,09,02,03,14,7.30
2008,09,02,03,15,7.30
2008,09,02,03,16,7.30
2008,09,02,03,17,7.30
2008,09,02,03,18,7.20
2008,09,02,03,19,7.20
2008,09,02,03,20,7.20
2008,09,02,03,21,7.20
2008,09,02,03,22,7.10
2008,09,02,03,23,7.10
2008,09,02,03,24,7.00
2008,09,02,03,25,7.00
2008,09,02,03,26,7.00
2008,09,02,03,27,7.10
2008,09,02,03,28,7.10
2008,09,02,03,29,7.00
2008,09,02,03,30,7.00
2008,09,02,03,31,7.00
2008,09,02,03,32,7.00
2008,09,02,03,33,6.90
2008,09,02,03,34,6.90
2008,09,02,03,35,6.90
2008,09,02,03,36,7.00
2008,09,02,03,37,7.00
2008,09,02,03,38,7.00
2008,09,02,03,39,7.00
2008,09,02,03,40,7.00
2008,09,02,03,41,7.00
2008,09,02,03,42,7.00
2008,09,02,03,43,6.90
2008,09,02,03,44,6.90
2008,09,02,03,45,6.90
2008,09,02,03,46,6.90
2008,09,02,03,47,6.90
2008,09,02,03,48,6.90
2008,09,02,03,49,6.90
2008,09,02,03,50,6.90
2008,09,02,03,51,6.80
2008,09,02,03,52,6.80
2008,09,02,03,53,6.80
2008,09,02,03,54,6.80
2008,09,02,03,55,6.80
2008,09,02,03,56,6.80
2008,09,02,03,57,6.90
2008,09,02,03,58,6.90
2008,09,02,03,59,6.90
2008,09,02,04,00,6.90
2008,09,02,04,01,6.90
2008,09,02,04,02,6.90
2008,09,02,04,03,6.90
2008,09,02,04,04,6.90
2008,09,02,04,05,6.90
2008,09,02,04,06,6.90
2008,09,02,04,07,6.80
2008,09,02,04,08,6.80
2008,09,02,04,09,6.80
2008,09,02,04,10,6.80
2008,09,02,04,11,6.80
2008,09,02,04,12,6.80
2008,09,02,04,13,6.80
2008,09,02,04,14,6.80
2008,09,02,04,15,6.80
2008,09,02,04,16,6.80
2008,09,02,04,17,6.80
2008,09,02,04,18,6.80
2008,09,02,04,19,6.80
2008,09,02,04,20,6.80
2008,09,02,04,21,6.70
2008,09,02,04,22,6.70
2008,09,02,04,23,6.70
2008,09,02,04,24,6.70
2008,09,02,04,25,6.70
2008,09,02,04,26,6.70
2008,09,02,04,27,6.70
2008,09,02,04,28,6.70
2008,09,02,04,29,6.70
2008,09,02,04,30,6.70
2008,09,02,04,31,6.70
2008,09,02,04,32,6.70
2008,09,02,04,33,6.70
2008,09,02,04,34,6.70
2008,09,02,04,35,6.70
2008,09,02,04,36,6.70
2008,09,02,04,37,6.70
2008,09,02,04,38,6.70
2008,09,02,04,39,6.60
2008,09,02,04,40,6.70
2008,09,02,04,41,6.60
2008,09,02,04,42,6.60
2008,09,02,04,43,6.60
2008,09,02,04,44,6.60
2008,09,02,04,45,6.60
2008,09,02,04,46,6.60
2008,09,02,04,47,6.60
2008,09,02,04,48,6.60
2008,09,02,04,49,6.60
2008,09,02,04,50,6.60
2008,09,02,04,51,6.60
2008,09,02,04,52,6.60
2008,09,02,04,53,6.50
2008,09,02,04,54,6.50
2008,09,02,04,55,6.50
2008,09,02,04,56,6.40
2008,09,02,04,57,6.40
2008,09,02,04,58,6.40
2008,09,02,04,59,6.50
2008,09,02,05,00,6.50
2008,09,02,05,01,6.50
2008,09,02,05,02,6.50
2008,09,02,05,03,6.50
2008,09,02,05,04,6.50
2008,09,02,05,05,6.50
2008,09,02,05,06,6.50
2008,09,02,05,07,6.50
2008,09,02,05,08,6.40
2008,09,02,05,09,6.40
2008,09,02,05,10,6.40
2008,09,02,05,11,6.30
2008,09,02,05,12,6.30
2008,09,02,05,13,6.30
2008,09,02,05,14,6.30
2008,09,02,05,15,6.30
2008,09,02,05,16,6.30
2008,09,02,05,17,6.30
2008,09,02,05,18,6.30
2008,09,02,05,19,6.30
2008,09,02,05,20,6.30
2008,09,02,05,21,6.30
2008,09,02,05,22,6.30
2008,09,02,05,23,6.30
2008,09,02,05,24,6.30
2008,09,02,05,25,6.30
2008,09,02,05,26,6.30
2008,09,02,05,27,6.30
2008,09,02,05,28,6.30
2008,09,02,05,29,6.30
2008,09,02,05,30,6.30
2008,09,02,05,31,6.30
2008,09,02,05,32,6.30
2008,09,02,05,33,6.30
2008,09,02,05,34,6.30
2008,09,02,05,35,6.20
2008,09,02,05,36,6.20
2008,09,02,05,37,6.20
2008,09,02,05,38,6.20
2008,09,02,05,39,6.20
2008,09,02,05,40,6.20
2008,09,02,05,41,6.20
2008,09,02,05,42,6.20
2008,09,02,05,43,6.20
2008,09,02,05,44,6.20
2008,09,02,05,45,6.20
2008,09,02,05,46,6.20
2008,09,02,05,47,6.10
2008,09,02,05,48,6.10
2008,09,02,05,49,6.10
2008,09,02,05,50,6.10
2008,09,02,05,51,6.10
2008,09,02,05,52,6.10
2008,09,02,05,53,6.20
2008,09,02,05,54,6.20
2008,09,02,05,55,6.20
2008,09,02,05,56,6.20
2008,09,02,05,57,6.10
2008,09,02,05,58,6.10
2008,09,02,05,59,6.10
2008,09,02,06,00,6.10
2008,09,02,06,01,6.10
2008,09,02,06,02,6.20
2008,09,02,06,03,6.20
2008,09,02,06,04,6.20
2008,09,02,06,05,6.20
2008,09,02,06,06,6.20
2008,09,02,06,07,6.20
2008,09,02,06,08,6.20
2008,09,02,06,09,6.10
2008,09,02,06,10,6.10
2008,09,02,06,11,6.10
2008,09,02,06,12,6.10
2008,09,02,06,13,6.10
2008,09,02,06,14,6.10
2008,09,02,06,15,6.10
2008,09,02,06,16,6.10
2008,09,02,06,17,6.10
2008,09,02,06,18,6.10
2008,09,02,06,19,6.10
2008,09,02,06,20,6.10
2008,09,02,06,21,6.10
2008,09,02,06,22,6.10
2008,09,02,06,23,6.10
2008,09,02,06,24,6.10
2008,09,02,06,25,6.10
2008,09,02,06,26,6.10
2008,09,02,06,27,6.10
2008,09,02,06,28,6.10
2008,09,02,06,29,6.10
2008,09,02,06,30,6.10
2008,09,02,06,31,6.10
2008,09,02,06,32,6.10
2008,09,02,06,33,6.10
2008,09,02,06,34,6.10
2008,09,02,06,35,6.10
2008,09,02,06,36,6.10
2008,09,02,06,37,6.10
2008,09,02,06,38,6.10
2008,09,02,06,39,6.10
2008,09,02,06,40,6.10
2008,09,02,06,41,6.10
2008,09,02,06,42,6.10
2008,09,02,06,43,6.10
2008,09,02,06,44,6.10
2008,09,02,06,45,6.10
2008,09,02,06,46,6.10
2008,09,02,06,47,6.10
2008,09,02,06,48,6.20
2008,09,02,06,49,6.20
2008,09,02,06,50,6.20
2008,09,02,06,51,6.30
2008,09,02,06,52,6.30
2008,09,02,06,53,6.30
2008,09,02,06,54,6.30
2008,09,02,06,55,6.40
2008,09,02,06,56,6.40
2008,09,02,06,57,6.40
2008,09,02,06,58,6.40
2008,09,02,06,59,6.40
2008,09,02,07,00,6.50
2008,09,02,07,01,6.50
2008,09,02,07,02,6.60
2008,09,02,07,03,6.60
2008,09,02,07,04,6.60
2008,09,02,07,05,6.70
2008,09,02,07,06,6.70
2008,09,02,07,07,6.70
2008,09,02,07,08,6.80
2008,09,02,07,09,6.80
2008,09,02,07,10,6.80
2008,09,02,07,11,6.90
2008,09,02,07,12,6.90
2008,09,02,07,13,7.00
2008,09,02,07,14,7.00
2008,09,02,07,15,7.10
2008,09,02,07,16,7.10
2008,09,02,07,17,7.10
2008,09,02,07,18,7.20
2008,09,02,07,19,7.20
2008,09,02,07,20,7.20
2008,09,02,07,21,7.30
2008,09,02,07,22,7.40
2008,09,02,07,23,7.40
2008,09,02,07,24,7.50
2008,09,02,07,25,7.60
2008,09,02,07,26,7.60
2008,09,02,07,27,7.60
2008,09,02,07,28,7.60
2008,09,02,07,29,7.70
2008,09,02,07,30,7.70
2008,09,02,07,31,7.70
2008,09,02,07,32,7.70
2008,09,02,07,33,7.70
2008,09,02,07,34,7.80
2008,09,02,07,35,7.80
2008,09,02,07,36,7.80
2008,09,02,07,37,7.80
2008,09,02,07,38,7.90
2008,09,02,07,39,7.90
2008,09,02,07,40,8.00
2008,09,02,07,41,8.00
2008,09,02,07,42,8.10
2008,09,02,07,43,8.10
2008,09,02,07,44,8.20
2008,09,02,07,45,8.20
2008,09,02,07,46,8.20
2008,09,02,07,47,8.20
2008,09,02,07,48,8.30
2008,09,02,07,49,8.30
2008,09,02,07,50,8.30
2008,09,02,07,51,8.30
2008,09,02,07,52,8.40
2008,09,02,07,53,8.40
2008,09,02,07,54,8.40
2008,09,02,07,55,8.40
2008,09,02,07,56,8.40
2008,09,02,07,57,8.50
2008,09,02,07,58,8.50
2008,09,02,07,59,8.60
2008,09,02,08,00,8.60
2008,09,02,08,01,8.60
2008,09,02,08,02,8.60
2008,09,02,08,03,8.70
2008,09,02,08,04,8.70
2008,09,02,08,05,8.70
2008,09,02,08,06,8.80
2008,09,02,08,07,8.80
2008,09,02,08,08,8.80
2008,09,02,08,09,8.80
2008,09,02,08,10,8.90
2008,09,02,08,11,8.90
2008,09,02,08,12,8.90
2008,09,02,08,13,8.90
2008,09,02,08,14,9.00
2008,09,02,08,15,9.00
2008,09,02,08,16,9.10
2008,09,02,08,17,9.10
2008,09,02,08,18,9.20
2008,09,02,08,19,9.20
2008,09,02,08,20,9.20
2008,09,02,08,21,9.20
2008,09,02,08,22,9.30
2008,09,02,08,23,9.30
2008,09,02,08,24,9.40
2008,09,02,08,25,9.40
2008,09,02,08,26,9.50
2008,09,02,08,27,9.60
2008,09,02,08,28,9.60
2008,09,02,08,29,9.60
2008,09,02,08,30,9.70
2008,09,02,08,31,9.70
2008,09,02,08,32,9.80
2008,09,02,08,33,9.80
2008,09,02,08,34,9.80
2008,09,02,08,35,9.90
2008,09,02,08,36,9.90
2008,09,02,08,37,9.90
2008,09,02,08,38,10.00
2008,09,02,08,39,10.00
2008,09,02,08,40,10.00
2008,09,02,08,41,10.10
2008,09,02,08,42,10.10
2008,09,02,08,43,10.10
2008,09,02,08,44,10.10
2008,09,02,08,45,10.10
2008,09,02,08,46,10.10
2008,09,02,08,47,10.10
2008,09,02,08,48,10.20
2008,09,02,08,49,10.20
2008,09,02,08,50,10.20
2008,09,02,08,51,10.20
2008,09,02,08,52,10.20
2008,09,02,08,53,10.30
2008,09,02,08,54,10.30
2008,09,02,08,55,10.30
2008,09,02,08,56,10.40
2008,09,02,08,57,10.50
2008,09,02,08,58,10.50
2008,09,02,08,59,10.60
2008,09,02,09,00,10.60
2008,09,02,09,01,10.70
2008,09,02,09,02,10.70
2008,09,02,09,03,10.70
2008,09,02,09,04,10.80
2008,09,02,09,05,10.80
2008,09,02,09,06,10.80
2008,09,02,09,07,10.80
2008,09,02,09,08,10.80
2008,09,02,09,09,10.80
2008,09,02,09,10,10.80
2008,09,02,09,11,10.90
2008,09,02,09,12,10.90
2008,09,02,09,13,10.90
2008,09,02,09,14,10.90
2008,09,02,09,15,10.90
2008,09,02,09,16,11.00
2008,09,02,09,17,11.00
2008,09,02,09,18,11.00
2008,09,02,09,19,11.10
2008,09,02,09,20,11.10
2008,09,02,09,21,11.10
2008,09,02,09,22,11.10
2008,09,02,09,23,11.20
2008,09,02,09,24,11.20
2008,09,02,09,25,11.20
2008,09,02,09,26,11.20
2008,09,02,09,27,11.20
2008,09,02,09,28,11.20
2008,09,02,09,29,11.20
2008,09,02,09,30,11.20
2008,09,02,09,31,11.10
2008,09,02,09,32,11.10
2008,09,02,09,33,11.10
2008,09,02,09,34,11.10
2008,09,02,09,35,11.10
2008,09,02,09,36,11.10
2008,09,02,09,37,11.10
2008,09,02,09,38,11.10
2008,09,02,09,39,11.10
2008,09,02,09,40,11.10
2008,09,02,09,41,11.20
2008,09,02,09,42,11.20
2008,09,02,09,43,11.20
2008,09,02,09,44,11.20
2008,09,02,09,45,11.20
2008,09,02,09,46,11.20
2008,09,02,09,47,11.20
2008,09,02,09,48,11.20
2008,09,02,09,49,11.20
2008,09,02,09,50,11.20
2008,09,02,09,51,11.20
2008,09,02,09,52,11.30
2008,09,02,09,53,11.30
2008,09,02,09,54,11.30
2008,09,02,09,55,11.40
2008,09,02,09,56,11.40
2008,09,02,09,57,11.40
2008,09,02,09,58,11.50
2008,09,02,09,59,11.50
2008,09,02,10,00,11.50
2008,09,02,10,01,11.50
2008,09,02,10,02,11.50
2008,09,02,10,03,11.60
2008,09,02,10,04,11.60
2008,09,02,10,05,11.60
2008,09,02,10,06,11.60
2008,09,02,10,07,11.60
2008,09,02,10,08,11.60
2008,09,02,10,09,11.70
2008,09,02,10,10,11.70
2008,09,02,10,11,11.80
2008,09,02,10,12,11.80
2008,09,02,10,13,11.90
2008,09,02,10,14,12.00
2008,09,02,10,15,12.10
2008,09,02,10,16,12.10
2008,09,02,10,17,12.20
2008,09,02,10,18,12.20
2008,09,02,10,19,12.20
2008,09,02,10,20,12.20
2008,09,02,10,21,12.20
2008,09,02,10,22,12.20
2008,09,02,10,23,12.20
2008,09,02,10,24,12.20
2008,09,02,10,25,12.20
2008,09,02,10,26,12.20
2008,09,02,10,27,12.20
2008,09,02,10,28,12.20
2008,09,02,10,29,12.30
2008,09,02,10,30,12.40
2008,09,02,10,31,12.50
2008,09,02,10,32,12.60
2008,09,02,10,33,12.80
2008,09,02,10,34,12.90
2008,09,02,10,35,13.00
2008,09,02,10,36,13.10
2008,09,02,10,37,13.20
2008,09,02,10,38,13.30
2008,09,02,10,39,13.40
2008,09,02,10,40,13.50
2008,09,02,10,41,13.50
2008,09,02,10,42,13.50
2008,09,02,10,43,13.60
2008,09,02,10,44,13.60
2008,09,02,10,45,13.70
2008,09,02,10,46,13.70
2008,09,02,10,47,13.70
2008,09,02,10,48,13.80
2008,09,02,10,49,13.90
2008,09,02,10,50,13.90
2008,09,02,10,51,14.00
2008,09,02,10,52,14.00
2008,09,02,10,53,14.00
2008,09,02,10,54,14.00
2008,09,02,10,55,14.00
2008,09,02,10,56,14.00
2008,09,02,10,57,13.90
2008,09,02,10,58,13.80
2008,09,02,10,59,13.80
2008,09,02,11,00,13.80
2008,09,02,11,01,13.80
2008,09,02,11,02,13.80
2008,09,02,11,03,13.80
2008,09,02,11,04,13.80
2008,09,02,11,05,13.80
2008,09,02,11,06,13.80
2008,09,02,11,07,13.80
2008,09,02,11,08,13.80
2008,09,02,11,09,13.80
2008,09,02,11,10,13.80
2008,09,02,11,11,13.90
2008,09,02,11,12,13.90
2008,09,02,11,13,14.00
2008,09,02,11,14,14.00
2008,09,02,11,15,14.00
2008,09,02,11,16,14.00
2008,09,02,11,17,14.00
2008,09,02,11,18,14.00
2008,09,02,11,19,14.00
2008,09,02,11,20,14.10
2008,09,02,11,21,14.10
2008,09,02,11,22,14.10
2008,09,02,11,23,14.10
2008,09,02,11,24,14.10
2008,09,02,11,25,14.10
2008,09,02,11,26,14.20
2008,09,02,11,27,14.20
2008,09,02,11,28,14.30
2008,09,02,11,29,14.30
2008,09,02,11,30,14.30
2008,09,02,11,31,14.40
2008,09,02,11,32,14.40
2008,09,02,11,33,14.40
2008,09,02,11,34,14.40
2008,09,02,11,35,14.40
2008,09,02,11,36,14.40
2008,09,02,11,37,14.40
2008,09,02,11,38,14.40
2008,09,02,11,39,14.40
2008,09,02,11,40,14.30
2008,09,02,11,41,14.30
2008,09,02,11,42,14.30
2008,09,02,11,43,14.30
2008,09,02,11,44,14.30
2008,09,02,11,45,14.40
2008,09,02,11,46,14.40
2008,09,02,11,47,14.50
2008,09,02,11,48,14.60
2008,09,02,11,49,14.70
2008,09,02,11,50,14.80
2008,09,02,11,51,14.80
2008,09,02,11,52,14.80
2008,09,02,11,53,14.90
2008,09,02,11,54,14.90
2008,09,02,11,55,14.90
2008,09,02,11,56,14.80
2008,09,02,11,57,14.90
2008,09,02,11,58,15.00
2008,09,02,11,59,15.00
2008,09,02,12,00,15.00
2008,09,02,12,01,15.10
2008,09,02,12,02,15.20
2008,09,02,12,03,15.20
2008,09,02,12,04,15.30
2008,09,02,12,05,15.40
2008,09,02,12,06,15.40
2008,09,02,12,07,15.40
2008,09,02,12,08,15.40
2008,09,02,12,09,15.30
2008,09,02,12,10,15.20
2008,09,02,12,11,15.30
2008,09,02,12,12,15.30
2008,09,02,12,13,15.30
2008,09,02,12,14,15.30
2008,09,02,12,15,15.30
2008,09,02,12,16,15.30
2008,09,02,12,17,15.40
2008,09,02,12,18,15.50
2008,09,02,12,19,15.50
2008,09,02,12,20,15.50
2008,09,02,12,21,15.50
2008,09,02,12,22,15.60
2008,09,02,12,23,15.60
2008,09,02,12,24,15.50
2008,09,02,12,25,15.50
2008,09,02,12,26,15.40
2008,09,02,12,27,15.50
2008,09,02,12,28,15.50
2008,09,02,12,29,15.50
2008,09,02,12,30,15.50
2008,09,02,12,31,15.40
2008,09,02,12,32,15.40
2008,09,02,12,33,15.40
2008,09,02,12,34,15.40
2008,09,02,12,35,15.40
2008,09,02,12,36,15.40
2008,09,02,12,37,15.40
2008,09,02,12,38,15.40
2008,09,02,12,39,15.40
2008,09,02,12,40,15.50
2008,09,02,12,41,15.50
2008,09,02,12,42,15.60
2008,09,02,12,43,15.70
2008,09,02,12,44,15.80
2008,09,02,12,45,15.80
2008,09,02,12,46,15.80
2008,09,02,12,47,15.80
2008,09,02,12,48,15.70
2008,09,02,12,49,15.70
2008,09,02,12,50,15.80
2008,09,02,12,51,15.80
2008,09,02,12,52,15.90
2008,09,02,12,53,15.90
2008,09,02,12,54,15.90
2008,09,02,12,55,15.90
2008,09,02,12,56,15.90
2008,09,02,12,57,15.90
2008,09,02,12,58,15.80
2008,09,02,12,59,15.90
2008,09,02,13,00,15.90
2008,09,02,13,01,15.90
2008,09,02,13,02,16.00
2008,09,02,13,03,16.00
2008,09,02,13,04,16.00
2008,09,02,13,05,16.00
2008,09,02,13,06,16.00
2008,09,02,13,07,16.00
2008,09,02,13,08,16.10
2008,09,02,13,09,16.20
2008,09,02,13,10,16.40
2008,09,02,13,11,16.50
2008,09,02,13,12,16.60
2008,09,02,13,13,16.60
2008,09,02,13,14,16.60
2008,09,02,13,15,16.50
2008,09,02,13,16,16.30
2008,09,02,13,17,16.30
2008,09,02,13,18,16.20
2008,09,02,13,19,16.20
2008,09,02,13,20,16.20
2008,09,02,13,21,16.20
2008,09,02,13,22,16.10
2008,09,02,13,23,16.10
2008,09,02,13,24,16.00
2008,09,02,13,25,15.90
2008,09,02,13,26,15.90
2008,09,02,13,27,16.00
2008,09,02,13,28,16.10
2008,09,02,13,29,16.30
2008,09,02,13,30,16.40
2008,09,02,13,31,16.50
2008,09,02,13,32,16.50
2008,09,02,13,33,16.60
2008,09,02,13,34,16.70
2008,09,02,13,35,16.80
2008,09,02,13,36,16.70
2008,09,02,13,37,16.70
2008,09,02,13,38,16.60
2008,09,02,13,39,16.60
2008,09,02,13,40,16.50
2008,09,02,13,41,16.30
2008,09,02,13,42,16.20
2008,09,02,13,43,16.10
2008,09,02,13,44,16.00
2008,09,02,13,45,16.00
2008,09,02,13,46,16.10
2008,09,02,13,47,16.20
2008,09,02,13,48,16.30
2008,09,02,13,49,16.40
2008,09,02,13,50,16.60
2008,09,02,13,51,16.70
2008,09,02,13,52,16.80
2008,09,02,13,53,16.80
2008,09,02,13,54,16.80
2008,09,02,13,55,16.80
2008,09,02,13,56,16.80
2008,09,02,13,57,16.80
2008,09,02,13,58,16.80
2008,09,02,13,59,16.80
2008,09,02,14,00,16.90
2008,09,02,14,01,16.90
2008,09,02,14,02,17.00
2008,09,02,14,03,17.10
2008,09,02,14,04,17.10
2008,09,02,14,05,17.00
2008,09,02,14,06,16.90
2008,09,02,14,07,16.80
2008,09,02,14,08,16.80
2008,09,02,14,09,16.70
2008,09,02,14,10,16.70
2008,09,02,14,11,16.80
2008,09,02,14,12,16.70
2008,09,02,14,13,16.70
2008,09,02,14,14,16.70
2008,09,02,14,15,16.70
2008,09,02,14,16,16.80
2008,09,02,14,17,16.80
2008,09,02,14,18,16.90
2008,09,02,14,19,16.90
2008,09,02,14,20,16.90
2008,09,02,14,21,16.90
2008,09,02,14,22,16.90
2008,09,02,14,23,16.90
2008,09,02,14,24,16.80
2008,09,02,14,25,16.70
2008,09,02,14,26,16.60
2008,09,02,14,27,16.60
2008,09,02,14,28,16.50
2008,09,02,14,29,16.50
2008,09,02,14,30,16.40
2008,09,02,14,31,16.30
2008,09,02,14,32,16.40
2008,09,02,14,33,16.50
2008,09,02,14,34,16.60
2008,09,02,14,35,16.80
2008,09,02,14,36,16.80
2008,09,02,14,37,16.80
2008,09,02,14,38,16.80
2008,09,02,14,39,16.90
2008,09,02,14,40,16.90
2008,09,02,14,41,16.90
2008,09,02,14,42,17.00
2008,09,02,14,43,17.00
2008,09,02,14,44,17.00
2008,09,02,14,45,17.00
2008,09,02,14,46,17.10
2008,09,02,14,47,17.10
2008,09,02,14,48,17.20
2008,09,02,14,49,17.30
2008,09,02,14,50,17.40
2008,09,02,14,51,17.40
2008,09,02,14,52,17.50
2008,09,02,14,53,17.50
2008,09,02,14,54,17.50
2008,09,02,14,55,17.50
2008,09,02,14,56,17.50
2008,09,02,14,57,17.50
2008,09,02,14,58,17.50
2008,09,02,14,59,17.40
2008,09,02,15,00,17.40
2008,09,02,15,01,17.40
2008,09,02,15,02,17.50
2008,09,02,15,03,17.50
2008,09,02,15,04,17.50
2008,09,02,15,05,17.50
2008,09,02,15,06,17.40
2008,09,02,15,07,17.40
2008,09,02,15,08,17.40
2008,09,02,15,09,17.40
2008,09,02,15,10,17.40
2008,09,02,15,11,17.40
2008,09,02,15,12,17.40
2008,09,02,15,13,17.40
2008,09,02,15,14,17.40
2008,09,02,15,15,17.50
2008,09,02,15,16,17.50
2008,09,02,15,17,17.50
2008,09,02,15,18,17.40
2008,09,02,15,19,17.40
2008,09,02,15,20,17.30
2008,09,02,15,21,17.20
2008,09,02,15,22,17.20
2008,09,02,15,23,17.30
2008,09,02,15,24,17.20
2008,09,02,15,25,17.20
2008,09,02,15,26,17.30
2008,09,02,15,27,17.30
2008,09,02,15,28,17.40
2008,09,02,15,29,17.40
2008,09,02,15,30,17.40
2008,09,02,15,31,17.40
2008,09,02,15,32,17.40
2008,09,02,15,33,17.40
2008,09,02,15,34,17.40
2008,09,02,15,35,17.50
2008,09,02,15,36,17.50
2008,09,02,15,37,17.60
2008,09,02,15,38,17.70
2008,09,02,15,39,17.70
2008,09,02,15,40,17.60
2008,09,02,15,41,17.60
2008,09,02,15,42,17.60
2008,09,02,15,43,17.70
2008,09,02,15,44,17.70
2008,09,02,15,45,17.70
2008,09,02,15,46,17.70
2008,09,02,15,47,17.60
2008,09,02,15,48,17.50
2008,09,02,15,49,17.40
2008,09,02,15,50,17.40
2008,09,02,15,51,17.40
2008,09,02,15,52,17.50
2008,09,02,15,53,17.60
2008,09,02,15,54,17.70
2008,09,02,15,55,17.70
2008,09,02,15,56,17.70
2008,09,02,15,57,17.70
2008,09,02,15,58,17.60
2008,09,02,15,59,17.50
2008,09,02,16,00,17.40
2008,09,02,16,01,17.40
2008,09,02,16,02,17.50
2008,09,02,16,03,17.50
2008,09,02,16,04,17.50
2008,09,02,16,05,17.50
2008,09,02,16,06,17.40
2008,09,02,16,07,17.40
2008,09,02,16,08,17.40
2008,09,02,16,09,17.40
2008,09,02,16,10,17.40
2008,09,02,16,11,17.40
2008,09,02,16,12,17.30
2008,09,02,16,13,17.30
2008,09,02,16,14,17.30
2008,09,02,16,15,17.30
2008,09,02,16,16,17.20
2008,09,02,16,17,17.20
2008,09,02,16,18,17.10
2008,09,02,16,19,17.10
2008,09,02,16,20,17.10
2008,09,02,16,21,17.10
2008,09,02,16,22,17.00
2008,09,02,16,23,17.00
2008,09,02,16,24,17.00
2008,09,02,16,25,16.90
2008,09,02,16,26,17.00
2008,09,02,16,27,17.00
2008,09,02,16,28,17.10
2008,09,02,16,29,17.10
2008,09,02,16,30,17.20
2008,09,02,16,31,17.30
2008,09,02,16,32,17.30
2008,09,02,16,33,17.40
2008,09,02,16,34,17.40
2008,09,02,16,35,17.40
2008,09,02,16,36,17.40
2008,09,02,16,37,17.30
2008,09,02,16,38,17.40
2008,09,02,16,39,17.40
2008,09,02,16,40,17.40
2008,09,02,16,41,17.40
2008,09,02,16,42,17.30
2008,09,02,16,43,17.30
2008,09,02,16,44,17.30
2008,09,02,16,45,17.20
2008,09,02,16,46,17.20
2008,09,02,16,47,17.20
2008,09,02,16,48,17.20
2008,09,02,16,49,17.10
2008,09,02,16,50,17.10
2008,09,02,16,51,17.10
2008,09,02,16,52,17.00
2008,09,02,16,53,17.00
2008,09,02,16,54,16.90
2008,09,02,16,55,16.90
2008,09,02,16,56,16.80
2008,09,02,16,57,16.80
2008,09,02,16,58,16.80
2008,09,02,16,59,16.80
2008,09,02,17,00,16.90
2008,09,02,17,01,16.90
2008,09,02,17,02,16.90
2008,09,02,17,03,16.90
2008,09,02,17,04,16.90
2008,09,02,17,05,16.90
2008,09,02,17,06,16.90
2008,09,02,17,07,16.80
2008,09,02,17,08,16.80
2008,09,02,17,09,16.80
2008,09,02,17,10,16.80
2008,09,02,17,11,16.80
2008,09,02,17,12,16.80
2008,09,02,17,13,16.90
2008,09,02,17,14,16.80
2008,09,02,17,15,16.80
2008,09,02,17,16,16.80
2008,09,02,17,17,16.80
2008,09,02,17,18,16.70
2008,09,02,17,19,16.70
2008,09,02,17,20,16.70
2008,09,02,17,21,16.70
2008,09,02,17,22,16.70
2008,09,02,17,23,16.70
2008,09,02,17,24,16.70
2008,09,02,17,25,16.80
2008,09,02,17,26,16.80
2008,09,02,17,27,16.80
2008,09,02,17,28,16.80
2008,09,02,17,29,16.70
2008,09,02,17,30,16.70
2008,09,02,17,31,16.70
2008,09,02,17,32,16.70
2008,09,02,17,33,16.80
2008,09,02,17,34,16.90
2008,09,02,17,35,17.00
2008,09,02,17,36,17.20
2008,09,02,17,37,17.20
2008,09,02,17,38,17.30
2008,09,02,17,39,17.30
2008,09,02,17,40,17.30
2008,09,02,17,41,17.30